TimePDT,TemperatureF,Dew PointF,Humidity,Sea Level PressureIn,VisibilityMPH,Wind Direction,Wind SpeedMPH,Gust SpeedMPH,PrecipitationIn,Events,Conditions,WindDirDegrees,DateUTC
12:00 AM,50.0,42.8,76,30.30,30.0,Calm,Calm,-,N/A,,Partly Cloudy,0,2012-10-05 07:00:00
1:00 AM,48.2,42.8,82,30.31,30.0,North,3.5,-,N/A,,Partly Cloudy,350,2012-10-05 08:00:00
2:00 AM,44.6,39.2,81,30.32,30.0,North,3.5,-,N/A,,Clear,350,2012-10-05 09:00:00
3:00 AM,46.4,39.2,76,30.32,30.0,Calm,Calm,-,N/A,,Clear,0,2012-10-05 10:00:00
4:00 AM,46.4,39.2,76,30.31,30.0,NNW,4.6,-,N/A,,Clear,340,2012-10-05 11:00:00
5:00 AM,44.6,37.4,76,30.31,30.0,NNW,4.6,-,N/A,,Clear,340,2012-10-05 12:00:00
6:00 AM,44.6,37.4,76,30.32,30.0,West,4.6,-,N/A,,Clear,270,2012-10-05 13:00:00
7:00 AM,44.6,39.2,81,30.32,30.0,North,3.5,-,N/A,,Clear,10,2012-10-05 14:00:00
8:00 AM,46.4,39.2,76,30.33,30.0,Calm,Calm,-,N/A,,Clear,0,2012-10-05 15:00:00
9:00 AM,53.6,42.8,67,30.34,30.0,West,2.3,-,N/A,,Clear,260,2012-10-05 16:00:00
10:00 AM,55.4,44.6,67,30.35,30.0,NW,10.4,-,N/A,,Clear,310,2012-10-05 17:00:00
11:00 AM,58,43,46,30.35,28,WNW,10.4,,,,,300,2012-10-05 18:00:00
11:00 AM,57.2,42.8,59,30.35,30.0,WNW,10.4,-,N/A,,Clear,300,2012-10-05 18:00:00
12:00 PM,59.0,44.6,59,30.34,30.0,WNW,15.0,-,N/A,,Clear,300,2012-10-05 19:00:00
1:00 PM,59.0,46.4,63,30.33,30.0,WNW,13.8,-,N/A,,Clear,300,2012-10-05 20:00:00
2:00 PM,59.0,46.4,63,30.31,30.0,NW,12.7,-,N/A,,Clear,310,2012-10-05 21:00:00
3:00 PM,60.8,44.6,55,30.29,30.0,NW,9.2,-,N/A,,Clear,310,2012-10-05 22:00:00
4:00 PM,62.6,42.8,48,30.27,30.0,NW,11.5,-,N/A,,Clear,310,2012-10-05 23:00:00
5:00 PM,61,40,35,30.27,28,NW,11.5,,,,,320,2012-10-06 00:00:00
5:00 PM,60.8,41.0,48,30.27,30.0,NW,12.7,-,N/A,,Clear,320,2012-10-06 00:00:00
6:00 PM,62.6,37.4,39,30.25,30.0,NW,8.1,-,N/A,,Clear,310,2012-10-06 01:00:00
7:00 PM,55.4,46.4,72,30.25,30.0,West,6.9,-,N/A,,Clear,270,2012-10-06 02:00:00
8:00 PM,51.8,46.4,82,30.25,15.0,NW,2.3,-,N/A,,Clear,320,2012-10-06 03:00:00
9:00 PM,51.8,46.4,82,30.24,15.0,NNW,3.5,-,N/A,,Clear,340,2012-10-06 04:00:00
10:00 PM,50.0,41.0,71,30.25,15.0,NNW,3.5,-,N/A,,Clear,340,2012-10-06 05:00:00
11:00 PM,51,44,70,30.25,15,North,3.5,,,,,0,2012-10-06 06:00:00
11:00 PM,51.8,44.6,76,30.25,15.0,Calm,Calm,-,N/A,,Clear,0,2012-10-06 06:00:00